Theta_e
319 319 319 318 317 317 317 318 318 318 318 319 319 319 319 319 319 319 319 319 319 319 320 322 324 329 315 303 309 328 355 355 329 329 334 339 331 332 324 328 330 326 328 331 332 330 329
319 318 318 318 318 317 318 318 318 317 318 318 318 318 318 318 318 318 318 318 318 318 320 322 325 330 309 300 315 333 327 326 323 329 333 340 337 335 332 329 327 328 328 329 331 329 329
316 317 317 316 317 317 317 317 318 317 317 318 318 318 317 317 317 317 317 317 317 318 320 322 326 325 306 304 324 327 321 317 324 327 327 340 341 332 336 330 335 330 323 326 327 328 327
316 316 316 317 316 315 316 316 317 317 317 317 318 317 317 317 317 316 316 316 316 319 322 324 328 314 300 310 317 314 321 319 325 329 328 333 345 337 336 337 330 324 320 314 324 327 331
315 315 316 315 315 315 316 315 316 316 316 317 317 317 317 317 316 316 315 315 317 321 324 324 310 305 300 319 313 315 316 317 321 324 325 332 336 329 333 324 317 319 308 314 318 325 325
314 314 315 315 315 315 315 315 315 316 316 317 317 316 316 316 316 315 314 314 316 318 321 324 322 304 305 307 310 312 313 319 319 321 322 324 321 319 318 320 310 311 312 317 314 323 325
314 314 314 313 313 314 314 314 314 314 315 316 316 316 316 316 315 314 310 302 305 301 306 300 298 305 309 311 311 309 311 311 316 318 310 314 311 309 315 321 322 320 318 316 322 326 323
314 314 314 313 314 314 314 314 314 314 314 314 315 315 315 315 314 312 307 296 300 301 297 305 308 308 310 310 307 308 310 306 308 307 312 310 307 314 318 318 317 317 317 317 322 327 321
313 313 313 314 312 313 314 315 315 315 315 315 315 315 314 314 312 306 300 301 305 304 296 301 304 306 307 310 307 307 308 307 308 307 309 307 312 318 316 314 314 316 314 314 315 324 323
313 312 312 312 312 312 314 314 315 315 315 314 315 315 314 311 304 301 300 307 306 303 291 296 299 306 309 309 303 310 309 308 308 309 310 309 314 316 314 312 313 308 318 321 321 313 306
315 316 313 312 312 312 313 314 314 314 314 314 314 314 312 310 300 301 304 306 304 300 284 301 301 310 306 305 302 305 309 311 308 310 310 308 308 310 309 310 315 311 317 317 320 311 307
314 314 315 315 312 311 312 313 314 314 314 314 314 313 311 304 300 304 306 302 302 293 287 299 304 303 301 299 300 303 306 311 312 309 305 308 310 308 308 310 312 313 315 313 309 306 300
314 314 314 315 314 311 310 313 314 314 313 313 312 310 309 308 296 303 303 300 292 288 300 299 298 300 296 297 299 299 301 300 299 297 297 302 304 306 309 305 307 312 307 299 297 298 299
314 314 315 315 314 313 311 313 314 314 313 312 309 309 306 307 304 303 300 297 287 295 294 299 298 297 296 297 297 297 296 296 297 299 294 296 295 304 308 305 303 308 307 299 293 294 298
315 314 315 315 314 313 313 314 314 313 312 311 308 299 300 303 306 301 298 288 290 293 300 299 299 296 294 295 297 295 294 294 298 300 296 292 295 303 307 306 306 301 304 308 300 297 297
314 314 314 315 314 314 314 314 313 313 312 310 301 298 299 305 307 300 294 290 291 298 301 299 293 296 293 294 294 293 292 297 297 302 301 298 293 300 304 306 308 305 307 300 298 294 294
314 314 314 314 314 314 314 314 314 312 311 309 298 299 304 305 300 297 290 290 296 301 301 297 295 295 295 296 296 292 294 298 301 299 302 296 294 295 298 297 298 303 303 303 301 298 295
314 313 313 314 314 314 314 314 313 311 309 302 294 295 302 300 293 288 288 293 298 296 298 297 297 297 297 298 295 295 296 298 303 301 299 298 294 292 295 300 303 306 304 303 298 297 297
314 314 313 314 314 314 314 314 312 311 310 304 291 294 303 299 287 286 289 292 295 294 293 295 297 298 298 295 294 299 299 306 304 302 299 299 292 289 292 295 298 299 304 302 301 301 298
314 315 313 313 314 314 314 314 312 311 310 299 293 295 299 297 293 291 289 292 292 299 297 298 297 297 296 295 296 297 301 306 304 304 322 308 291 293 291 293 297 296 304 307 302 299 298
314 315 314 312 313 313 314 314 313 312 311 303 292 293 298 292 294 293 296 295 297 296 298 297 295 298 297 292 295 296 302 303 306 315 304 302 295 293 294 298 299 299 300 306 303 304 301
314 315 314 313 313 313 314 315 314 312 309 297 291 295 299 296 297 297 295 295 298 299 298 296 295 299 297 295 298 297 300 298 299 303 298 295 294 294 291 298 301 301 307 309 310 303 301
314 314 313 313 313 314 314 315 315 312 305 295 297 298 298 296 296 295 294 297 299 303 301 303 302 299 297 300 304 304 304 303 302 303 295 294 293 292 290 297 298 298 303 311 309 310 306
314 314 314 314 314 314 314 315 315 313 307 298 296 296 295 294 296 299 303 303 304 305 302 304 301 298 302 304 306 303 300 300 302 300 298 293 291 290 289 291 293 306 313 313 309 309 312
313 314 314 313 313 314 314 315 315 314 312 300 298 296 295 293 298 301 302 302 304 304 303 305 302 305 305 301 298 295 296 299 301 302 296 296 294 290 290 288 298 304 307 308 306 304 310
313 313 314 313 313 314 314 314 315 314 313 301 298 299 296 294 295 302 301 301 299 298 300 305 308 305 303 298 297 290 292 294 297 300 298 298 296 296 289 294 292 301 309 312 310 299 310
313 313 313 313 313 313 314 314 314 314 313 305 301 300 297 294 298 300 298 299 302 299 297 299 302 302 301 295 294 293 294 299 296 296 297 295 295 294 297 295 298 305 307 311 299 300 308
312 313 313 313 313 313 313 313 313 314 314 306 301 303 301 296 298 303 305 300 300 299 295 299 300 301 301 294 294 295 294 296 300 301 299 296 293 294 296 294 294 308 307 304 304 307 308
312 313 313 313 313 313 313 313 314 314 314 309 300 306 307 300 299 304 308 309 307 305 300 299 299 299 301 297 298 297 299 299 296 296 303 296 297 296 297 297 303 305 305 307 307 306 306
Wind_Speed
13 13 13 13 13 13 13 13 14 14 15 15 16 15 17 17 18 18 17 17 17 16 16 17 16 15 4 3 8 2 9 8 4 4 4 4 2 2 2 2 2 2 4 7 7 5 2
12 12 11 13 14 14 14 14 15 14 14 15 16 16 17 18 19 19 19 18 18 16 15 15 14 14 2 2 0 4 7 5 4 4 3 5 3 3 2 2 2 3 8 7 6 4 4
12 12 13 12 13 15 15 15 14 15 14 15 16 17 17 18 19 20 20 20 19 18 14 12 11 4 2 11 5 3 4 4 4 4 2 4 7 3 4 2 7 4 2 6 5 3 4
13 14 14 13 14 14 15 16 15 15 15 15 16 17 18 18 20 20 21 21 22 18 12 7 5 1 8 4 2 3 4 4 4 6 2 5 6 4 3 1 6 6 5 2 2 4 2
12 12 13 13 14 15 13 16 16 16 15 15 16 17 18 19 19 20 21 24 22 12 4 3 1 1 10 8 3 5 6 4 2 3 3 4 4 3 1 4 4 7 1 1 7 5 1
13 12 13 13 14 13 14 16 16 16 17 16 16 17 18 19 18 19 23 21 9 6 2 4 3 3 4 1 5 2 5 4 4 3 4 4 5 2 3 5 1 1 4 2 2 4 3
14 13 14 14 14 14 15 16 16 16 17 18 17 17 18 19 19 15 14 5 5 4 2 8 5 3 5 8 4 2 4 5 3 5 0 3 3 6 6 4 3 3 3 4 4 5 2
12 13 14 14 13 13 14 16 17 17 18 18 18 18 19 20 21 18 3 3 3 3 8 10 9 8 5 4 5 5 3 4 4 4 3 6 7 6 3 4 6 6 6 5 5 5 1
14 13 12 14 15 15 14 14 15 16 17 17 18 18 20 22 24 2 1 5 3 5 3 9 7 7 5 8 7 7 8 4 3 3 4 6 7 5 1 4 5 1 7 5 7 0 5
12 13 13 14 15 15 14 14 15 16 17 18 18 18 19 27 2 4 4 3 6 4 5 8 4 9 6 7 4 7 7 7 1 10 5 5 5 6 9 6 4 6 5 6 4 4 2
15 13 12 14 15 15 14 15 15 16 17 18 18 17 16 10 5 2 2 7 7 3 2 3 4 1 4 11 3 5 6 6 8 5 7 9 2 2 4 6 3 10 5 8 0 4 2
14 16 15 14 15 16 14 15 15 15 17 18 19 16 15 1 2 8 8 9 3 7 7 1 6 6 6 3 1 2 5 5 4 5 1 7 1 1 4 4 5 11 2 7 6 4 4
14 15 16 16 14 16 17 14 14 16 18 19 19 17 11 3 5 4 8 4 6 4 5 2 5 6 3 5 2 4 7 6 7 6 5 7 6 3 3 7 4 4 6 4 4 4 6
14 14 16 14 14 13 16 14 15 17 19 21 21 22 5 6 5 3 3 7 4 5 6 5 3 4 6 6 5 3 6 5 2 6 4 6 9 7 4 8 5 4 8 8 6 5 4
12 14 15 13 14 13 13 15 17 18 20 22 20 2 3 5 9 2 6 3 9 6 4 6 3 5 2 3 6 4 7 8 9 9 9 6 7 3 3 2 5 2 2 5 8 2 4
16 12 15 15 14 14 14 16 17 19 21 23 3 4 5 4 10 5 6 5 5 4 5 4 1 1 5 2 5 7 7 8 9 13 6 8 2 6 4 4 2 6 4 3 4 4 3
14 14 14 14 14 14 15 16 17 19 22 10 2 3 3 4 3 6 5 7 6 6 5 4 1 3 2 5 8 7 6 5 10 10 9 7 5 6 4 3 7 1 1 7 5 5 7
14 13 14 12 12 14 15 15 16 16 20 8 2 2 1 3 6 1 4 7 3 3 5 4 2 5 3 4 4 7 11 8 7 10 12 8 6 7 10 5 3 5 7 5 7 5 2
13 13 13 14 12 13 14 14 14 13 11 3 3 3 3 4 4 1 4 2 3 3 2 4 4 3 1 1 3 6 6 9 10 13 14 9 3 2 11 8 3 4 4 5 6 5 6
15 14 12 13 13 13 13 13 12 11 7 3 1 2 3 2 1 6 3 4 4 4 6 6 6 3 1 3 5 4 2 4 7 12 11 11 5 9 10 9 5 3 5 6 5 5 6
16 17 9 12 12 13 13 12 12 12 9 3 1 3 1 4 5 4 3 2 2 3 5 6 4 9 7 4 3 4 5 5 2 2 7 12 9 6 6 5 4 5 4 6 7 7 7
14 14 9 10 11 13 13 12 12 12 4 3 2 2 5 1 2 4 6 5 11 6 5 6 5 3 7 8 9 4 4 1 2 6 4 2 6 7 2 6 7 5 8 10 7 2 1
13 13 9 10 11 11 12 12 10 10 5 2 3 3 3 3 3 3 5 4 3 2 9 15 11 1 5 17 12 11 6 2 3 2 4 5 8 5 7 4 6 6 6 7 7 7 2
15 11 11 10 10 11 11 11 7 8 6 2 2 1 2 3 0 1 3 5 7 4 5 5 8 8 6 5 6 2 3 3 7 5 5 6 6 3 5 3 4 3 8 15 16 8 11
15 12 12 11 11 10 11 10 8 7 4 1 2 2 1 2 2 5 8 4 7 6 3 6 5 4 6 1 5 5 6 6 3 5 3 4 7 5 7 4 2 1 3 3 3 9 13
14 13 12 11 11 11 10 11 10 8 7 1 3 3 2 2 3 5 4 4 3 5 7 5 6 7 2 4 5 5 4 5 3 5 6 7 6 8 3 8 7 6 3 5 1 6 10
13 13 13 11 11 11 11 10 10 9 8 1 3 3 3 1 4 3 1 3 4 3 3 6 9 10 4 3 4 4 3 4 1 4 4 5 5 6 4 5 3 4 10 5 4 7 1
13 13 13 11 12 12 11 10 10 9 8 1 4 4 3 2 6 4 2 2 5 1 2 6 4 5 6 6 3 3 4 2 5 3 0 5 3 3 4 5 2 14 5 5 5 6 5
13 13 13 12 11 11 11 10 9 9 7 2 2 1 2 3 7 5 11 15 10 15 1 4 3 2 3 3 1 2 4 4 2 2 5 7 2 6 5 5 4 7 10 9 5 5 5
Wind_Direction
18 12 11 6 6 2 2 360 1 1 355 352 350 351 345 345 341 339 338 334 331 328 323 322 325 327 336 359 255 111 123 127 109 122 180 136 45 103 178 333 100 177 269 299 226 336 76
22 20 20 19 11 5 359 356 355 356 354 349 345 346 345 341 339 336 334 329 323 319 316 315 320 320 340 274 331 158 134 119 145 201 190 131 167 184 121 274 98 255 292 359 110 161 105
19 15 11 13 6 9 4 358 354 351 351 348 343 342 343 339 337 333 329 322 315 311 309 303 312 321 53 239 75 124 156 165 206 213 184 121 152 153 129 282 219 196 337 25 20 46 130
20 18 10 11 6 2 358 358 355 351 348 345 341 339 337 337 334 330 322 315 311 305 300 283 287 328 248 256 2 230 172 291 225 253 180 201 158 147 203 287 10 30 40 33 298 36 96
16 11 16 10 4 360 353 352 348 349 345 341 340 336 334 332 331 326 319 312 305 299 256 220 161 131 267 318 278 220 154 218 165 242 260 254 120 161 55 92 32 15 114 339 326 335 314
10 10 10 5 2 359 354 350 349 344 342 340 336 334 330 327 326 325 320 307 289 304 153 195 240 0 286 238 270 215 189 160 247 332 12 72 42 60 45 73 190 89 312 296 243 225 199
5 3 3 2 2 1 355 353 350 344 339 337 334 331 328 325 323 326 338 7 26 5 53 198 211 251 280 300 306 245 147 121 96 75 195 11 74 232 242 212 197 160 229 223 283 263 210
357 357 356 357 357 352 349 345 341 340 340 336 330 328 327 324 319 324 130 68 98 157 306 236 232 273 280 68 316 301 110 141 119 197 96 13 260 232 223 207 229 237 223 241 283 258 217
351 349 349 346 348 348 344 336 333 331 331 332 329 328 328 325 321 81 32 226 31 329 178 290 196 215 198 139 210 251 134 135 142 166 159 173 233 25 258 315 309 235 194 209 216 209 357
345 346 343 342 342 342 339 335 331 329 328 328 328 328 332 329 60 327 275 281 308 204 57 270 230 267 152 149 260 206 182 138 291 192 177 239 279 262 294 287 155 295 217 255 224 103 191
355 349 342 340 339 339 332 330 328 328 327 326 324 326 333 333 295 294 309 314 307 68 345 182 202 120 188 158 176 221 201 74 166 179 114 239 201 173 243 242 157 247 280 231 310 96 95
347 342 343 340 337 337 330 324 324 326 325 322 318 321 332 39 293 247 311 313 74 47 253 248 139 155 134 144 203 86 106 70 143 171 100 234 317 174 237 318 217 267 247 44 57 68 17
347 342 338 335 338 337 336 327 331 328 323 318 311 308 310 285 236 324 314 43 53 153 329 191 182 158 156 153 210 134 143 153 150 140 249 328 272 250 176 310 334 101 64 5 9 16 215
344 340 334 335 330 334 336 341 333 328 322 316 313 311 249 206 241 300 10 53 161 233 251 302 95 85 173 138 223 127 105 171 219 105 126 187 318 173 182 184 206 206 157 154 187 185 252
338 339 338 337 332 336 343 340 332 328 324 319 319 333 273 249 184 35 75 108 206 212 286 352 6 117 247 220 165 132 178 193 198 168 166 141 263 282 195 129 127 321 181 183 102 25 77
343 336 336 338 344 345 345 336 333 332 328 328 324 346 263 124 157 92 81 225 240 229 320 3 53 116 189 220 162 149 170 202 208 185 156 209 314 239 233 136 49 158 170 85 11 129 207
337 338 335 333 339 339 337 335 335 336 334 338 35 6 278 155 145 56 170 222 267 261 22 25 331 302 221 203 187 168 212 278 201 189 175 135 128 270 70 169 189 67 27 56 111 107 158
334 334 331 331 330 332 332 335 336 342 341 38 359 46 300 96 76 44 159 195 282 282 28 327 235 231 237 326 213 194 206 228 164 147 161 201 162 237 220 251 203 159 184 156 129 216 139
338 330 333 334 333 330 330 333 334 343 16 338 4 273 349 55 139 246 267 260 249 279 232 253 272 231 43 344 325 194 204 241 181 157 172 175 216 312 333 355 28 183 201 139 116 95 192
334 331 330 333 339 338 332 330 329 332 355 93 36 75 346 68 173 135 163 249 236 245 244 199 244 218 359 293 202 280 271 270 173 191 141 123 131 165 199 205 169 192 186 163 116 124 172
333 337 330 335 334 336 333 336 330 329 334 129 105 262 244 211 286 187 169 239 237 304 252 177 231 203 172 243 281 227 246 313 47 315 157 142 186 175 220 211 201 219 294 175 173 173 163
333 335 335 336 335 333 338 335 332 337 15 78 111 24 349 274 292 184 158 242 231 243 227 271 214 204 165 219 199 239 214 202 158 342 125 345 202 158 91 204 214 76 17 62 18 70 267
340 343 341 336 335 336 335 333 336 0 38 49 307 316 115 277 350 107 199 258 263 283 239 226 224 322 212 229 207 215 199 202 194 177 134 134 133 111 225 201 134 34 338 94 94 28 135
342 343 342 340 337 339 334 342 12 23 71 144 252 84 52 277 308 305 308 291 272 267 244 273 204 171 245 275 137 92 79 318 202 215 156 125 102 88 147 57 75 196 115 101 82 40 1
341 344 341 342 339 339 340 353 4 13 41 123 255 132 132 272 270 311 322 297 308 295 261 249 252 179 295 305 72 47 347 356 289 51 198 156 125 85 120 78 74 194 277 333 94 18 4
337 339 339 337 339 341 341 342 346 352 358 121 245 163 116 114 224 291 306 326 324 317 322 282 312 307 81 90 92 126 178 224 268 6 79 72 70 110 104 119 186 226 315 350 80 26 338
334 334 332 334 333 333 332 335 335 340 346 168 273 193 103 169 264 335 343 287 324 343 252 300 338 339 14 69 91 134 210 205 95 66 337 13 20 109 105 109 280 47 311 294 110 196 334
331 330 324 331 329 330 331 331 331 335 338 48 264 205 143 204 273 252 279 263 334 15 14 292 8 343 3 60 104 200 125 152 83 30 52 95 72 93 82 82 129 346 343 145 164 89 120
327 324 326 327 327 327 329 330 329 327 329 77 287 266 150 181 238 256 247 243 215 231 164 308 201 256 234 72 32 118 63 53 128 121 349 35 144 133 102 136 297 339 64 45 62 94 49